User: anonymous   Login
Location: Unspecified
(0.0000°N, 0.0000°E)
Time: 22:14:17
(UTC+00:00)
Language:

Jawsat - Orbit

View from above orbital plane
View from above orbital plane
View from above satellite
View from above satellite

Ground track
Ground track

The orbit data is extracted from the following two-line orbital elements,

1 26061U 00004A   18343.92179442 +.00000057 +00000-0 +35731-4 0  9991
2 26061 100.2136 131.7327 0034190 125.9901 234.4460 14.41270940991002
Epoch (UTC): 09 December 2018 22:07:23
Eccentricity: 0.0034190
inclination: 100.2136°
perigee height: 730 km
apogee height: 778 km
right ascension of ascending node: 131.7327°
argument of perigee: 125.9901°
revolutions per day: 14.41270940
mean anomaly at epoch: 234.4460°
orbit number at epoch: 99100

The dashed part of the orbit path shows where the satellite is in the earth's shadow,  

DLR